Location: *
(46.1006°N, 1.8394°E)
Time: 19:48:38
(UTC+00:00)

CZ-2C R/B - Pass Details

Date: 20 September 2019
Orbit: 785 x 870 km, 98.3° (Epoch: 15 October)

Event Time Altitude Azimuth Distance (km) Brightness Sun altitude
Rises 19:53:50 0° 23° (NNE) 3,441 5.9 -20.8°
Reaches altitude 10° 19:56:36 10° 36° (NE) 2,509 5.0 -21.2°
Enters shadow 19:58:58 21° 57° (ENE) 1,867 4.2 -21.6°
